This is the latest recevied weather packets stored in our database for station/object OK1FET-5. If no packets are shown the sender has not sent any weather packets the latest 10 day(s).
| Time | Temp. | Humidity | Pressure | Rain* | Wind** | Luminosity | Snow |
|---|---|---|---|---|---|---|---|
| 1777052920 | 10° C | 43% | 1017.9 hPa | - | - | - | - |
| 1777052626 | 10.56° C | 42% | 1017.8 hPa | - | - | - | - |
| 1777052332 | 10.56° C | 43% | 1017.9 hPa | - | - | - | - |
| 1777052037 | 11.11° C | 45% | 1017.9 hPa | - | - | - | - |
| 1777051743 | 11.67° C | 39% | 1017.8 hPa | - | - | - | - |
| 1777051449 | 11.67° C | 39% | 1017.7 hPa | - | - | - | - |
| 1777051154 | 12.22° C | 41% | 1017.7 hPa | - | - | - | - |
| 1777050565 | 12.78° C | 38% | 1017.7 hPa | - | - | - | - |
| 1777049976 | 13.89° C | 41% | 1017.6 hPa | - | - | - | - |
| 1777049682 | 13.89° C | 41% | 1017.6 hPa | - | - | - | - |
| 1777049092 | 14.44° C | 42% | 1017.7 hPa | - | - | - | - |
| 1777048503 | 14.44° C | 43% | 1017.7 hPa | - | - | - | - |
| 1777048209 | 15° C | 41% | 1017.7 hPa | - | - | - | - |
| 1777047914 | 15° C | 41% | 1017.8 hPa | - | - | - | - |
| 1777047619 | 15.56° C | 42% | 1017.8 hPa | - | - | - | - |
| 1777047324 | 15.56° C | 42% | 1017.8 hPa | - | - | - | - |
| 1777047029 | 15.56° C | 42% | 1017.8 hPa | - | - | - | - |
| 1777046734 | 16.11° C | 42% | 1017.8 hPa | - | - | - | - |
| 1777046439 | 16.11° C | 41% | 1017.8 hPa | - | - | - | - |
| 1777046144 | 16.11° C | 41% | 1017.8 hPa | - | - | - | - |
| 1777045849 | 16.11° C | 41% | 1017.9 hPa | - | - | - | - |
| 1777045554 | 16.67° C | 42% | 1017.9 hPa | - | - | - | - |
| 1777045260 | 16.67° C | 42% | 1018 hPa | - | - | - | - |
| 1777044670 | 16.67° C | 41% | 1018.1 hPa | - | - | - | - |
| 1777044375 | 17.22° C | 40% | 1018 hPa | - | - | - | - |
* Rain since midnight (hover to see other rain measurements)
** Current wind speed in m/s (hover to see current wind gust speed)